Home   Weather   Singen (Hohentwiel)   Past weeks

Flag for Germany Past Weather in Singen (Hohentwiel), Baden-Württemberg, Germany — Yesterday and Last 2 Weeks

Now
36 °F

Clear.


Feels Like: 33 °F
Forecast: 31 / 63 °F
Wind: 3 mph from Northwest

Location: Zurich-Kloten

Current Time: Apr 30, 2017 at 1:30:17 am

Latest Report: Apr 30, 2017 at 12:50 am


Visibility: 10 mi

Pressure: 29.98 "Hg

Humidity: 87%

Dew Point: 32 °F

Location of Singen (Hohentwiel)Location

Past Weather in Singen (Hohentwiel) — Graph

°F

Singen (Hohentwiel) Temperature Yesterday

Maximum temperature yesterday: 55 °F (at 3:50 pm)
Minimum temperature yesterday: 27 °F (at 5:50 am)
Average temperature yesterday: 42 °F

High & Low Weather Summary for the Past Weeks

 TemperatureHumidityPressure
High68 °F (Apr 24, 5:20 pm)100% (Apr 18, 1:50 am)30.51 "Hg (Apr 18, 1:50 am)
Low25 °F (Apr 21, 4:50 am)24% (Apr 21, 4:50 pm)29.71 "Hg (Apr 25, 10:50 pm)
Average43 °F75%30.11 "Hg
* Reported Apr 15 12:20 am — Apr 30 12:20 am, Singen (Hohentwiel), Weather by CustomWeather, © 2017

Note: Actual official high and low records may vary slightly from our data, if they occured in-between our weather recording intervals... More about our weather records

Advertising

Singen (Hohentwiel) Weather History for the Previous 24 Hours

Scroll right to see more
 ConditionsComfort  
Time TempWeatherWind HumidityBarometerVisibility
12:20 am
Sun, Apr 30
36 °FClear.1 mph87%29.98 "Hg10 mi
11:50 pm
Sat, Apr 29
37 °FClear.2 mph87%29.98 "Hg10 mi
11:20 pm39 °FClear.2 mph75%29.98 "Hg10 mi
10:50 pm41 °FClear.No wind70%29.98 "Hg10 mi
10:20 pm43 °FClear.1 mph66%29.98 "Hg10 mi
9:50 pm45 °FPassing clouds.3 mph57%29.98 "HgN/A
9:20 pm45 °FClear.2 mph57%29.98 "Hg10 mi
8:50 pm48 °FClear.3 mph43%29.98 "Hg10 mi
8:20 pm50 °FSunny.7 mph43%29.98 "Hg10 mi
7:50 pm52 °FPassing clouds.8 mph41%29.98 "HgN/A
7:20 pm54 °FPassing clouds.8 mph41%29.98 "HgN/A
6:50 pm54 °FPassing clouds.8 mph38%29.98 "HgN/A
6:20 pm55 °FPassing clouds.8 mph38%29.98 "HgN/A
5:50 pm54 °FPassing clouds.9 mph38%30.01 "HgN/A
5:20 pm55 °FPassing clouds.7 mph41%30.01 "HgN/A
4:50 pm55 °FPassing clouds.8 mph41%30.01 "HgN/A
4:20 pm55 °FPassing clouds.7 mph44%30.01 "HgN/A
3:50 pm55 °FPassing clouds.6 mph38%30.01 "HgN/A
3:20 pm54 °FPassing clouds.3 mph44%30.01 "HgN/A
2:50 pm54 °FPassing clouds.6 mph47%30.01 "HgN/A
2:20 pm52 °FPassing clouds.7 mph41%30.04 "HgN/A
1:50 pm52 °FPassing clouds.5 mph47%30.04 "HgN/A
1:20 pm52 °FPassing clouds.7 mph50%30.04 "HgN/A
12:50 pm50 °FPassing clouds.5 mph50%30.04 "HgN/A
12:20 pm48 °FPassing clouds.5 mph62%30.07 "HgN/A
11:50 am48 °FPassing clouds.2 mph66%30.07 "HgN/A
11:20 am46 °FPassing clouds.2 mph66%30.07 "HgN/A
10:50 am45 °FPassing clouds.2 mph76%30.09 "Hg5 mi
10:20 am39 °FPassing clouds.5 mph93%30.09 "Hg4 mi
9:50 am37 °FFog.3 mph100%30.09 "Hg1 mi
9:20 am36 °FFog.3 mph100%30.09 "Hg0 mi
8:50 am36 °FFog.3 mph93%30.09 "Hg0 mi
8:20 am32 °FFog.3 mph100%30.09 "Hg0 mi
7:50 am30 °FIce fog.3 mph100%30.09 "Hg0 mi
7:20 am30 °FScattered clouds.3 mph100%30.09 "Hg0 mi
6:50 am28 °FScattered clouds.1 mph100%30.09 "Hg1 mi
6:20 am28 °FIce fog.2 mph93%30.09 "Hg1 mi
5:50 am27 °FLight fog.5 mph100%30.09 "Hg1 mi
5:20 am28 °FLight fog.2 mph100%30.09 "Hg1 mi
4:50 am28 °FLight fog.1 mph100%30.09 "Hg1 mi
4:20 am30 °FLight fog.1 mph100%30.09 "Hg1 mi
3:50 am32 °FLight fog.2 mph100%30.09 "Hg1 mi
3:20 am30 °FLight fog.1 mph100%30.09 "Hg1 mi
2:50 am30 °FLight fog.No wind100%30.09 "Hg2 mi
1:50 am32 °FLight fog.No wind100%30.09 "Hg2 mi
1:20 am34 °FFog.1 mph93%30.09 "Hg2 mi
Weather by CustomWeather, © 2017

See weather overviewHow to use our weather pages